Regional Weather Roundup
Issued by NWS

Home | Current Version | Previous Version | Graphics & Text | Print | Product List | Glossary On
Versions: 1 2 3 4 5 6 7 8 9 10 11 12 13 14 15 16 17 18 19 20 21 22 23 24 25 26 27 28 29 30 31 32 33 34 35 36 37 38 39 40 41 42 43 44 45 46 47 48 49 50
000
ASUS43 KLOT 300910
RWRIL

ILLINOIS REGIONAL WEATHER ROUNDUP
NATIONAL WEATHER SERVICE CHICAGO/ROMEOVILLE IL
400 AM CDT SAT AUG 30 2014

NOTE: "FAIR" INDICATES FEW OR NO CLOUDS BELOW 12,000 FEET WITH NO
SIGNIFICANT WEATHER AND/OR OBSTRUCTIONS TO VISIBILITY.

* THESE STATIONS ARE NOT UNDER NWS QUALITY CONTROL. THEY ALSO MAY NOT
  REPORT WEATHER SUCH AS PRECIPITATION OR FOG.

ILZ001-002-007-009-015-016-024-301000-
NORTHWEST ILLINOIS

CITY           SKY/WX    TMP DP  RH WIND       PRES   REMARKS
MOLINE         RAIN      70  68  93 S8        29.83R FOG
STERLING*      PTCLDY    70  66  88 W6        29.83S
SAVANNA*       LGT RAIN  72  68  89 SW10      29.81S
$$

ILZ003-004-008-010-011-017-018-301000-
NORTH CENTRAL ILLINOIS

CITY           SKY/WX    TMP DP  RH WIND       PRES   REMARKS
ROCKFORD       MOCLDY    70  67  90 SW9       29.83S
FREEPORT*      PTCLDY    68  66  94 SW10      29.84R
ROCHELLE*      PTCLDY    69  67  94 S6        29.84S
DE KALB*       CLOUDY    69  67  94 SW8       29.85S
PERU*          MOCLDY    72  69  91 SW9       29.85S
$$

ILZ005-006-012>014-019>023-301000-
NORTHEAST ILLINOIS

CITY           SKY/WX    TMP DP  RH WIND       PRES   REMARKS
CHICAGO-OHARE  CLOUDY    75  66  73 SW13      29.84R
CHICAGO-MIDWAY CLOUDY    76  70  82 S14       29.84S
AURORA         CLOUDY    73  68  84 SW10      29.85R
LANSING*         N/A    N/A N/A N/A MISG        N/A
JOLIET*        CLOUDY    74  68  82 SW6       29.86S
WAUKEGAN       CLOUDY    75  68  78 SW18      29.81S
DUPAGE AIRPORT CLOUDY    74  69  85 SW13      29.84R
KANKAKEE*      DRIZZLE   72  70  93 S7        29.88F
WHEELING       CLOUDY    76  69  79 S14       29.85R
MORRIS*        CLOUDY    74  71  89 SW9       29.85S
ROMEOVILLE*    CLOUDY    73  70  90 SW9       29.86R
NORTHERLY ISL    N/A     76  67  73 SW13        N/A
$$

LMZ740>746-301000-
SOUTHERN LAKE MICHIGAN

STATION/POSITION SKY/WX   TEMP    WIND        PRES    VSBY  WAVE
                          AIR SEA DIR/SP/G                  HT/PER
                          (F)     (DEG/KT/KT) (MB)    (MI)  (FT/S)
SOUTHERN BUOY              72 69  170/ 17/ 19 1009.5F
WAUKEGAN HARBOR            76     200/ 14/ 17   N/A
HARRISON CRIB              76     200/ 23/ 26   N/A
BURNHAM HARBOR             76     180/ 12/ 18   N/A
CALUMET HARBOR             75     190/  9/ 12 1009.8S
MICHIGAN CITY              74     160/ 13/ 18   N/A
MICHIGAN CITY 6N           74 72  180/ 16/ 19   N/A           1/ 2
ST. JOSEPH                 73 70  170/ 14/ 17   N/A           2/ 3
$$

ILZ025>027-034>036-040-047-049-050-058-095>099-301000-
WEST-CENTRAL ILLINOIS

CITY           SKY/WX    TMP DP  RH WIND       PRES   REMARKS
QUINCY         MOCLDY    72  69  90 W12       29.89R
GALESBURG*     CLOUDY    71  69  95 SW15G21   29.85R
MACOMB*        MOCLDY    72  70  93 SW12G22   29.89R
JACKSONVILLE*  PTCLDY    74  71  91 S10       29.90S
PITTSFIELD*    MOCLDY    73  69  87 SW8       29.91R
$$

ILZ028>032-037-038-041>044-048-051>054-059>061-301000-
CENTRAL ILLINOIS

CITY           SKY/WX    TMP DP  RH WIND       PRES   REMARKS
PONTIAC        CLOUDY    75  72  88 S7        29.87S
DECATUR        CLOUDY    74  70  87 S13       29.92S
PEORIA         PTCLDY    73  69  87 S9        29.86S
LACON*         PTCLDY    71  68  92 S6        29.84S
LINCOLN*       CLOUDY    74  70  88 S7        29.86F
SPRINGFIELD    CLOUDY    75  69  81 S12       29.90R
TAYLORVILLE    LGT RAIN  72  68  88 S9        29.92S
$$

ILZ033-039-045-046-055>057-062-063-301000-
EAST-CENTRAL ILLINOIS

CITY           SKY/WX    TMP DP  RH WIND       PRES   REMARKS
CHAMPAIGN      CLOUDY    73  69  87 S8        29.93R
DANVILLE*      RAIN      73  69  88 S12G17    29.91R
RANTOUL*       CLOUDY    74  68  80 S6        29.93R
MATTOON        CLOUDY    74  68  81 SW8       29.94S
PARIS*         CLOUDY    73  69  89 S7        29.95S
$$

ILZ079-100>102-301000-
SOUTHWEST ILLINOIS

CITY           SKY/WX    TMP DP  RH WIND       PRES   REMARKS
BELLEVILLE     CLOUDY    72  72  99 VRB2      29.93S
CAHOKIA*       CLOUDY    76  68  76 S6        29.93S
SPARTA*        DRIZZLE   72  69  92 SW9       29.96S
$$

ILZ064>066-069>071-074>076-080>082-084>086-088>090-092>094-301000-
SOUTH-CENTRAL ILLINOIS

CITY           SKY/WX    TMP DP  RH WIND       PRES   REMARKS
CARBONDALE     CLOUDY    73  69  87 S6        29.97R
CAIRO*         CLOUDY    75  71  86 S5        29.99R
EFFINGHAM*     LGT RAIN  74  64  73 S8        29.96R
MARION         MOCLDY    75  70  83 S7        29.98S
MT. VERNON     CLOUDY    73  66  78 SW7       29.98R
CENTRALIA*     LGT RAIN  72  66  83 S6        29.96S
SALEM*         CLOUDY    75  70  85 S7        29.96S
METROPOLIS*    CLOUDY    74  70  87 CALM      29.99R
$$

ILZ067-068-072-073-078-083-087-091-301000-
SOUTHEAST ILLINOIS

CITY           SKY/WX    TMP DP  RH WIND       PRES   REMARKS
LAWRENCEVILLE  CLOUDY    74  69  85 S8        29.98R
FLORA*         CLOUDY    72  69  88 S5        29.97R
FAIRFIELD*     LGT RAIN  73  72  94 S3        29.97S
HARRISBURG*    CLOUDY    73  71  93 S5        29.99S
ROBINSON*      CLOUDY    75  70  84 S6        29.97S
CARMI*         LGT RAIN  74  71  89 S3        29.98R
$$

ABBREVIATIONS USED IN REMARKS
   TC - TEMPERATURE IN CELSIUS
  WCI - WIND CHILL INDEX
   HX - HEAT INDEX
  VSB - VISIBILITY
$$




USA.gov is the U.S. government's official web portal to all federal, state and local government web resources and services.